This is the latest recevied weather packets stored in our database for station/object KC5EZZ. If no packets are shown the sender has not sent any weather packets the latest 10 day(s).
| Time | Temp. | Humidity | Pressure | Rain* | Wind** | Luminosity | Snow |
|---|---|---|---|---|---|---|---|
| 1777634884 | 12.78° C | 95% | 0 hPa | 1.02 mm | - | - | - |
| 1777634584 | 12.78° C | 95% | 0 hPa | 1.02 mm | - | - | - |
| 1777634284 | 13.33° C | 95% | 0 hPa | 0.51 mm | - | - | - |
| 1777633984 | 12.78° C | 95% | 0 hPa | 0.76 mm | - | - | - |
| 1777633684 | 13.33° C | 94% | 0 hPa | 0.76 mm | - | - | - |
| 1777633384 | 13.33° C | 94% | 0 hPa | 0.76 mm | - | - | - |
| 1777633084 | 12.78° C | 94% | 0 hPa | 0.76 mm | - | - | - |
| 1777632784 | 12.78° C | 94% | 0 hPa | 0.76 mm | - | - | - |
| 1777632484 | 13.33° C | 94% | 0 hPa | 1.02 mm | - | - | - |
| 1777632184 | 13.33° C | 94% | 0 hPa | 1.02 mm | - | - | - |
| 1777631884 | 13.89° C | 94% | 0 hPa | 1.02 mm | - | - | - |
| 1777631584 | 13.33° C | 94% | 0 hPa | 1.02 mm | - | - | - |
| 1777631284 | 13.33° C | 94% | 0 hPa | 1.02 mm | - | - | - |
| 1777630984 | 13.33° C | 94% | 0 hPa | 0.76 mm | - | - | - |
| 1777630684 | 13.89° C | 94% | 0 hPa | 0.76 mm | - | - | - |
| 1777630384 | 13.33° C | 94% | 0 hPa | 0.51 mm | - | - | - |
| 1777630084 | 13.33° C | 94% | 0 hPa | 0.51 mm | - | - | - |
| 1777629784 | 13.89° C | 94% | 0 hPa | 0.25 mm | - | - | - |
| 1777629484 | 13.89° C | 93% | 0 hPa | 0.25 mm | - | - | - |
| 1777629184 | 14.44° C | 93% | 0 hPa | 0.25 mm | - | - | - |
| 1777628884 | 13.33° C | 93% | 0 hPa | 0 mm | - | - | - |
| 1777628584 | 13.33° C | 93% | 0 hPa | 0 mm | - | - | - |
| 1777628284 | 13.33° C | 93% | 0 hPa | 0 mm | - | - | - |
| 1777627984 | 13.33° C | 93% | 0 hPa | 0 mm | - | - | - |
| 1777627684 | 13.33° C | 93% | 0 hPa | 0 mm | - | - | - |
* Rain latest hour (hover to see other rain measurements)
** Current wind speed in m/s (hover to see current wind gust speed)